Precipitable_Water
0.60 0.59 0.60 0.64 0.67 0.72 0.72 0.75 0.76 0.74 0.85 0.88 0.88 0.80 0.71 0.75 0.74 0.74 0.73 0.65 0.65 0.61 0.57 0.55 0.55 0.61 0.53 0.40 0.34 0.49 0.70 0.66 0.62 0.58 0.48 0.37 0.34 0.32 0.29 0.30 0.31 0.31 0.33 0.36 0.36 0.35 0.42
0.53 0.54 0.56 0.56 0.57 0.58 0.62 0.67 0.74 0.74 0.78 0.83 0.83 0.85 0.80 0.78 0.77 0.75 0.74 0.69 0.70 0.63 0.59 0.55 0.55 0.61 0.50 0.33 0.41 0.49 0.56 0.57 0.52 0.53 0.49 0.40 0.34 0.36 0.33 0.30 0.32 0.36 0.33 0.34 0.36 0.39 0.48
0.50 0.50 0.49 0.49 0.50 0.52 0.55 0.58 0.66 0.70 0.75 0.74 0.79 0.84 0.78 0.74 0.75 0.78 0.80 0.70 0.69 0.66 0.63 0.57 0.58 0.59 0.45 0.33 0.39 0.55 0.58 0.59 0.59 0.56 0.48 0.42 0.38 0.41 0.39 0.29 0.37 0.33 0.30 0.32 0.34 0.36 0.40
0.48 0.46 0.47 0.46 0.47 0.49 0.51 0.56 0.59 0.64 0.70 0.75 0.69 0.73 0.77 0.76 0.75 0.75 0.72 0.72 0.61 0.57 0.64 0.59 0.61 0.60 0.36 0.42 0.47 0.44 0.43 0.52 0.60 0.62 0.55 0.49 0.46 0.46 0.42 0.35 0.32 0.28 0.28 0.23 0.32 0.38 0.42
0.47 0.49 0.49 0.50 0.53 0.54 0.54 0.55 0.58 0.60 0.64 0.67 0.76 0.72 0.68 0.74 0.70 0.67 0.70 0.68 0.58 0.52 0.56 0.58 0.57 0.54 0.37 0.55 0.46 0.56 0.58 0.39 0.51 0.53 0.53 0.52 0.52 0.44 0.42 0.28 0.23 0.24 0.19 0.25 0.30 0.38 0.41
0.46 0.46 0.50 0.52 0.51 0.50 0.50 0.56 0.56 0.58 0.62 0.63 0.62 0.69 0.71 0.70 0.68 0.62 0.57 0.57 0.62 0.58 0.50 0.56 0.65 0.42 0.41 0.32 0.47 0.58 0.64 0.54 0.35 0.46 0.45 0.44 0.47 0.39 0.36 0.29 0.14 0.15 0.21 0.26 0.28 0.35 0.41
0.46 0.46 0.44 0.48 0.48 0.50 0.50 0.54 0.58 0.55 0.59 0.62 0.66 0.64 0.64 0.64 0.71 0.60 0.55 0.51 0.36 0.47 0.54 0.32 0.36 0.36 0.39 0.57 0.64 0.54 0.61 0.48 0.39 0.44 0.35 0.38 0.35 0.32 0.33 0.27 0.24 0.23 0.26 0.26 0.29 0.35 0.35
0.45 0.44 0.45 0.47 0.50 0.51 0.52 0.55 0.57 0.56 0.58 0.64 0.64 0.68 0.64 0.60 0.62 0.66 0.56 0.47 0.48 0.54 0.35 0.45 0.41 0.41 0.39 0.47 0.44 0.50 0.63 0.42 0.36 0.32 0.41 0.35 0.28 0.37 0.36 0.31 0.26 0.24 0.24 0.25 0.31 0.36 0.36
0.46 0.44 0.43 0.47 0.47 0.49 0.50 0.53 0.52 0.55 0.60 0.61 0.64 0.64 0.67 0.64 0.61 0.53 0.47 0.55 0.72 0.69 0.37 0.31 0.28 0.26 0.26 0.33 0.29 0.32 0.52 0.49 0.37 0.32 0.35 0.32 0.34 0.37 0.33 0.28 0.24 0.23 0.23 0.27 0.29 0.34 0.38
0.46 0.45 0.46 0.47 0.47 0.47 0.48 0.50 0.51 0.55 0.59 0.63 0.64 0.65 0.64 0.65 0.52 0.49 0.42 0.61 0.65 0.73 0.27 0.22 0.21 0.21 0.26 0.30 0.24 0.31 0.40 0.48 0.41 0.33 0.38 0.37 0.39 0.37 0.33 0.27 0.27 0.21 0.30 0.33 0.34 0.31 0.24
0.45 0.45 0.43 0.47 0.47 0.45 0.45 0.48 0.51 0.54 0.57 0.61 0.65 0.67 0.67 0.65 0.52 0.42 0.53 0.58 0.64 0.61 0.10 0.12 0.21 0.26 0.29 0.22 0.18 0.21 0.27 0.39 0.37 0.38 0.39 0.34 0.38 0.36 0.33 0.30 0.35 0.29 0.39 0.37 0.36 0.32 0.28
0.46 0.43 0.42 0.44 0.44 0.42 0.44 0.45 0.49 0.52 0.56 0.60 0.65 0.68 0.67 0.63 0.61 0.57 0.54 0.58 0.64 0.22 0.08 0.10 0.18 0.24 0.24 0.26 0.19 0.21 0.21 0.31 0.43 0.36 0.42 0.39 0.47 0.42 0.37 0.36 0.38 0.42 0.38 0.36 0.35 0.32 0.22
0.44 0.42 0.42 0.40 0.41 0.41 0.42 0.45 0.48 0.48 0.53 0.59 0.65 0.70 0.67 0.67 0.49 0.61 0.53 0.49 0.24 0.15 0.14 0.10 0.18 0.25 0.24 0.25 0.21 0.24 0.17 0.21 0.28 0.27 0.26 0.35 0.37 0.43 0.44 0.37 0.40 0.41 0.35 0.24 0.22 0.21 0.19
0.44 0.42 0.42 0.41 0.40 0.41 0.42 0.43 0.47 0.47 0.52 0.59 0.66 0.71 0.70 0.68 0.71 0.65 0.50 0.34 0.14 0.18 0.14 0.16 0.16 0.21 0.22 0.26 0.20 0.22 0.21 0.17 0.28 0.29 0.27 0.24 0.23 0.35 0.44 0.40 0.35 0.36 0.36 0.26 0.18 0.18 0.21
0.41 0.42 0.42 0.41 0.39 0.40 0.41 0.43 0.46 0.47 0.51 0.59 0.67 0.68 0.64 0.67 0.74 0.67 0.38 0.21 0.20 0.24 0.23 0.17 0.16 0.16 0.20 0.25 0.27 0.22 0.22 0.21 0.20 0.27 0.22 0.23 0.24 0.33 0.37 0.39 0.41 0.35 0.33 0.38 0.28 0.30 0.24
0.43 0.42 0.41 0.40 0.38 0.39 0.40 0.41 0.44 0.46 0.51 0.61 0.61 0.61 0.56 0.73 0.75 0.60 0.33 0.22 0.26 0.34 0.30 0.23 0.14 0.18 0.17 0.21 0.23 0.27 0.27 0.34 0.28 0.30 0.32 0.28 0.21 0.31 0.34 0.38 0.41 0.38 0.42 0.32 0.31 0.21 0.20
0.42 0.40 0.39 0.38 0.37 0.38 0.40 0.43 0.45 0.49 0.53 0.63 0.60 0.48 0.60 0.75 0.70 0.47 0.26 0.23 0.29 0.33 0.33 0.22 0.18 0.16 0.21 0.22 0.24 0.24 0.28 0.38 0.44 0.38 0.40 0.33 0.27 0.25 0.30 0.31 0.33 0.35 0.34 0.36 0.34 0.31 0.23
0.41 0.39 0.38 0.38 0.37 0.38 0.42 0.45 0.48 0.52 0.56 0.61 0.55 0.37 0.66 0.72 0.39 0.37 0.28 0.31 0.34 0.33 0.33 0.28 0.24 0.21 0.18 0.23 0.21 0.21 0.27 0.29 0.47 0.47 0.38 0.44 0.32 0.23 0.26 0.35 0.39 0.38 0.36 0.36 0.29 0.27 0.31
0.38 0.38 0.36 0.38 0.38 0.40 0.44 0.46 0.50 0.55 0.60 0.58 0.46 0.46 0.68 0.64 0.28 0.27 0.34 0.33 0.36 0.34 0.33 0.32 0.27 0.27 0.23 0.18 0.20 0.23 0.27 0.45 0.46 0.42 0.42 0.44 0.37 0.23 0.23 0.30 0.36 0.33 0.35 0.37 0.38 0.37 0.27
0.39 0.37 0.37 0.38 0.38 0.40 0.44 0.49 0.54 0.58 0.64 0.62 0.47 0.35 0.47 0.51 0.44 0.34 0.32 0.31 0.31 0.37 0.35 0.36 0.33 0.32 0.26 0.20 0.22 0.20 0.26 0.40 0.45 0.45 0.51 0.50 0.38 0.33 0.27 0.32 0.42 0.37 0.38 0.38 0.36 0.30 0.30
0.37 0.36 0.36 0.37 0.39 0.40 0.45 0.53 0.58 0.63 0.68 0.62 0.47 0.36 0.45 0.32 0.35 0.37 0.36 0.33 0.29 0.28 0.36 0.37 0.30 0.29 0.27 0.22 0.20 0.19 0.21 0.26 0.40 0.52 0.47 0.44 0.33 0.36 0.37 0.41 0.42 0.39 0.39 0.38 0.33 0.33 0.29
0.35 0.36 0.36 0.37 0.39 0.43 0.51 0.59 0.65 0.69 0.71 0.56 0.41 0.39 0.45 0.41 0.43 0.38 0.36 0.29 0.30 0.33 0.33 0.30 0.30 0.32 0.30 0.24 0.25 0.20 0.23 0.22 0.24 0.34 0.39 0.48 0.33 0.37 0.32 0.35 0.36 0.35 0.37 0.38 0.39 0.37 0.36
0.37 0.38 0.38 0.39 0.43 0.52 0.59 0.65 0.70 0.72 0.70 0.53 0.54 0.55 0.48 0.41 0.39 0.35 0.31 0.34 0.34 0.36 0.36 0.36 0.35 0.33 0.30 0.29 0.32 0.32 0.31 0.28 0.28 0.31 0.33 0.36 0.35 0.33 0.26 0.34 0.31 0.23 0.35 0.40 0.40 0.39 0.37
0.38 0.37 0.40 0.47 0.54 0.60 0.65 0.69 0.71 0.72 0.71 0.62 0.58 0.55 0.43 0.32 0.35 0.36 0.38 0.38 0.35 0.37 0.34 0.37 0.38 0.36 0.38 0.44 0.42 0.39 0.38 0.36 0.32 0.31 0.39 0.30 0.32 0.33 0.23 0.26 0.17 0.20 0.30 0.39 0.43 0.42 0.42
0.41 0.44 0.50 0.57 0.61 0.65 0.69 0.71 0.72 0.72 0.73 0.66 0.66 0.56 0.46 0.34 0.40 0.39 0.39 0.39 0.40 0.40 0.38 0.37 0.39 0.42 0.48 0.43 0.32 0.26 0.24 0.26 0.29 0.30 0.32 0.36 0.29 0.21 0.17 0.18 0.20 0.20 0.21 0.26 0.44 0.39 0.48
0.52 0.58 0.63 0.66 0.68 0.70 0.70 0.70 0.70 0.71 0.72 0.69 0.66 0.68 0.55 0.40 0.35 0.45 0.41 0.41 0.36 0.34 0.36 0.38 0.45 0.47 0.44 0.38 0.34 0.24 0.18 0.20 0.20 0.27 0.39 0.37 0.36 0.27 0.21 0.15 0.12 0.13 0.20 0.36 0.45 0.29 0.50
0.65 0.65 0.67 0.68 0.67 0.64 0.63 0.64 0.66 0.67 0.67 0.68 0.64 0.69 0.56 0.41 0.47 0.47 0.39 0.38 0.46 0.41 0.36 0.39 0.40 0.41 0.45 0.35 0.29 0.26 0.24 0.29 0.20 0.22 0.26 0.27 0.29 0.22 0.22 0.21 0.21 0.27 0.32 0.40 0.29 0.36 0.58
0.57 0.58 0.58 0.58 0.59 0.60 0.60 0.62 0.63 0.64 0.65 0.65 0.60 0.70 0.56 0.44 0.47 0.52 0.53 0.45 0.44 0.42 0.35 0.40 0.40 0.41 0.38 0.31 0.30 0.30 0.26 0.28 0.26 0.28 0.26 0.23 0.22 0.21 0.25 0.21 0.16 0.35 0.41 0.31 0.45 0.62 0.62
0.65 0.65 0.65 0.65 0.65 0.65 0.65 0.65 0.66 0.67 0.66 0.65 0.52 0.66 0.68 0.51 0.47 0.55 0.54 0.57 0.58 0.53 0.45 0.45 0.39 0.38 0.37 0.34 0.32 0.32 0.27 0.31 0.27 0.21 0.35 0.24 0.27 0.24 0.25 0.22 0.35 0.47 0.47 0.53 0.55 0.56 0.65
Wind_Speed
30 30 30 30 30 30 31 31 32 33 36 36 36 35 33 33 32 31 31 30 29 28 27 26 25 24 21 19 21 20 18 17 15 14 13 12 12 10 10 9 8 10 10 12 12 10 7
29 29 29 29 29 29 30 30 31 32 32 34 35 34 33 34 34 33 32 31 32 30 29 28 26 25 23 21 20 20 20 20 18 16 15 14 12 12 12 11 9 10 12 13 11 8 7
28 28 28 28 29 29 29 29 29 29 29 30 32 32 33 33 33 34 33 33 32 32 31 30 28 26 25 25 22 21 19 18 17 16 15 15 15 11 11 12 11 11 13 12 10 8 9
27 27 27 27 27 28 28 28 28 28 27 27 27 30 32 33 32 31 31 33 32 34 33 31 29 27 26 24 24 24 24 22 20 18 18 17 16 14 13 12 10 10 10 9 7 5 7
27 27 27 27 27 27 28 28 28 27 27 27 27 28 29 30 31 31 31 31 33 34 33 31 29 27 26 25 22 21 22 23 22 20 18 16 16 15 12 11 10 9 9 8 8 8 8
28 28 28 28 28 28 28 28 27 27 26 27 28 27 27 28 29 29 28 30 30 27 27 28 28 26 25 22 20 20 20 22 22 19 18 18 16 15 13 11 12 10 10 8 8 9 7
30 30 30 30 29 29 29 28 28 27 27 26 26 27 26 25 25 27 26 23 22 26 27 29 26 25 22 20 20 22 19 19 22 21 20 19 17 18 18 16 11 9 10 11 11 12 11
32 31 31 30 30 30 30 29 28 28 27 26 26 25 25 24 24 21 21 21 22 24 28 32 33 34 33 27 24 24 20 20 22 22 21 19 23 19 18 16 16 14 13 14 15 13 8
33 33 32 32 32 32 31 31 30 29 28 27 26 25 24 23 23 22 19 20 19 23 25 27 30 31 31 32 31 31 24 22 22 23 24 22 17 21 21 18 17 17 15 15 14 13 11
35 35 34 34 34 33 33 32 31 30 29 28 27 26 24 22 21 19 19 19 20 21 21 22 23 25 27 28 30 30 29 24 24 26 22 24 27 16 16 21 16 17 16 17 15 12 13
37 36 36 36 36 35 34 33 33 32 31 30 29 28 25 23 21 20 18 20 20 16 17 14 17 18 21 25 22 26 29 27 26 22 24 24 20 23 24 22 18 17 15 16 17 16 12
38 38 38 38 38 37 37 36 35 34 33 32 31 29 27 25 24 23 21 19 16 16 19 15 14 15 17 22 20 17 26 26 24 23 23 26 19 20 21 21 22 19 17 16 14 13 14
39 39 39 39 39 39 39 38 37 37 35 34 33 31 29 27 24 22 21 18 17 20 15 15 14 15 15 16 18 20 25 26 23 20 24 21 25 22 20 18 19 18 15 14 14 14 15
41 40 40 40 40 39 39 39 39 38 37 36 34 33 32 30 29 26 22 22 23 18 23 16 15 14 16 14 17 17 19 25 26 20 18 23 19 24 23 26 19 19 20 16 15 14 15
42 41 41 41 40 40 39 39 39 38 37 35 34 34 33 30 30 27 24 28 23 23 16 17 16 15 14 14 15 17 18 21 27 27 22 18 21 19 21 24 25 22 22 20 18 17 15
43 42 41 41 41 40 39 38 38 37 36 34 32 32 33 31 31 28 29 33 29 23 21 17 16 14 13 15 14 15 16 16 21 24 28 24 21 20 19 19 25 26 20 16 17 17 18
43 42 42 41 41 40 38 37 35 34 33 31 30 29 30 32 31 30 33 32 32 33 26 21 21 20 17 16 15 16 17 16 13 16 23 26 25 23 20 20 20 20 23 22 20 19 21
43 42 41 41 40 39 38 35 33 31 30 29 27 27 29 31 30 30 34 33 31 25 27 30 24 25 26 22 22 20 20 18 16 16 15 19 21 23 30 29 23 21 23 24 24 23 20
42 41 41 40 39 38 36 34 32 31 30 26 26 26 28 30 31 33 29 30 30 25 24 21 24 25 27 27 25 25 23 20 19 19 16 17 17 21 22 23 21 25 27 27 24 22 29
42 41 41 40 38 36 34 33 31 30 31 30 24 24 26 31 29 32 29 30 28 30 30 24 23 21 21 24 29 25 23 22 20 20 20 19 19 20 21 21 21 22 23 26 29 27 23
42 41 41 39 37 36 34 33 32 31 31 30 28 26 25 26 31 27 30 25 30 28 25 23 25 26 22 18 19 26 29 25 21 21 21 21 23 23 24 24 22 26 29 31 31 31 30
42 41 40 39 38 36 34 33 32 33 33 34 31 28 27 24 26 31 29 31 28 27 23 24 20 15 20 23 24 21 19 20 25 24 23 20 24 24 27 26 22 26 33 34 34 31 28
41 41 40 38 36 35 35 34 34 35 37 34 34 32 29 28 27 30 34 31 27 25 26 25 21 21 19 23 21 20 21 24 25 25 24 23 21 20 25 24 23 26 21 27 35 36 30
42 41 39 37 36 36 36 36 36 37 40 39 35 33 33 30 32 30 28 31 32 29 27 22 25 21 17 15 18 19 19 20 21 23 22 22 24 22 25 22 24 30 26 27 32 37 38
42 40 38 37 37 36 36 36 36 37 39 40 37 36 34 35 31 33 32 28 30 30 30 29 24 20 17 16 15 16 16 17 20 21 23 22 21 22 23 24 28 30 27 23 21 32 31
39 37 37 36 36 35 35 35 36 37 38 40 39 38 34 33 36 32 28 33 29 31 29 30 25 24 21 20 18 18 17 17 15 15 18 19 19 20 20 21 26 34 26 19 23 35 26
33 33 33 33 33 34 35 36 37 38 40 39 37 39 35 34 31 33 34 32 30 29 26 26 27 25 24 22 22 22 21 20 19 18 16 15 17 21 20 21 24 24 22 19 20 24 25
26 29 31 33 35 36 37 38 38 40 41 41 40 39 40 34 33 30 29 30 33 36 30 26 23 24 24 25 24 23 23 23 23 22 20 19 17 18 17 17 22 20 16 16 19 29 28
28 30 32 33 35 37 39 40 40 40 42 43 38 42 39 35 33 37 39 31 31 34 32 30 28 25 27 25 26 23 25 21 23 23 23 22 21 17 19 19 18 18 19 20 19 19 25
Wind_Direction
293 294 293 292 291 290 289 288 284 282 274 271 270 270 267 267 268 267 266 267 268 267 269 271 271 273 267 259 255 252 251 253 253 251 252 245 240 240 241 244 266 270 283 292 293 286 274
293 292 292 291 290 290 291 290 289 284 282 271 271 270 268 269 266 267 265 266 266 265 266 268 269 268 260 259 254 254 250 249 247 246 246 239 240 238 249 252 258 271 284 286 289 264 268
293 291 291 289 290 290 291 291 290 288 284 276 271 269 269 271 267 268 265 265 263 263 263 264 265 262 257 254 252 251 249 242 241 240 243 240 235 245 247 256 259 275 284 285 274 268 270
290 289 290 290 291 291 292 291 290 289 286 280 278 271 268 267 269 267 268 266 263 262 260 261 260 257 256 255 256 251 243 243 239 241 240 241 231 245 245 251 270 282 275 271 263 270 285
288 288 289 289 290 291 292 292 291 290 286 279 279 277 272 268 268 269 269 268 263 262 257 255 253 254 258 254 249 246 239 237 232 237 234 234 231 238 241 243 266 267 253 255 285 285 276
286 287 288 288 289 290 291 291 290 290 287 283 278 276 273 273 271 269 271 270 262 255 248 246 250 252 249 247 242 245 240 232 229 229 229 227 231 233 241 238 246 245 238 250 261 291 306
284 285 286 287 287 288 289 290 289 290 287 285 282 276 273 272 275 267 272 268 255 251 249 243 245 244 247 250 246 236 240 228 226 224 224 228 230 230 228 232 240 238 245 257 262 281 288
282 284 284 285 286 287 287 288 288 288 287 284 281 279 273 271 270 274 266 258 257 257 258 250 249 247 246 249 248 241 233 226 223 225 224 231 235 232 233 234 241 245 251 258 270 273 277
281 282 283 284 285 285 285 285 286 286 284 283 281 277 276 272 271 267 258 256 261 267 258 253 246 245 242 236 237 239 231 231 228 225 224 229 242 227 228 233 239 244 244 253 255 284 282
279 280 282 282 283 284 284 283 284 283 282 280 278 276 274 272 267 259 255 253 268 267 259 252 247 245 235 234 238 230 228 227 231 226 225 233 232 227 230 235 231 247 238 250 262 271 270
278 279 280 281 282 282 282 281 281 280 279 277 274 272 270 265 263 259 255 263 266 250 257 245 235 239 228 224 237 228 222 223 226 225 223 233 228 230 234 234 228 238 241 249 258 260 260
277 278 280 280 281 280 279 280 280 279 277 274 271 268 264 261 257 255 260 258 248 244 244 249 234 227 223 229 233 222 216 220 224 228 232 231 227 226 232 234 231 240 253 258 259 253 255
276 278 279 280 280 280 279 278 277 276 274 271 268 264 259 254 253 250 253 245 238 237 250 247 244 233 228 224 226 219 214 213 215 219 227 234 234 234 234 237 234 232 238 254 259 250 253
276 277 278 279 280 279 278 276 274 273 271 267 265 260 255 250 249 248 243 235 237 242 241 246 247 254 230 222 229 220 215 218 223 225 226 227 240 226 230 230 231 230 227 234 248 250 260
275 276 277 278 278 277 277 275 272 269 268 265 261 256 250 245 241 239 234 233 238 235 246 243 255 240 237 233 228 221 220 223 225 224 227 230 239 238 233 233 227 235 233 239 248 259 262
272 274 275 277 277 276 275 274 271 266 262 258 256 252 246 237 233 234 234 235 235 238 243 239 241 241 243 243 231 228 225 233 232 230 230 237 243 236 238 231 233 230 232 237 245 245 256
270 272 274 275 275 274 272 270 267 261 255 251 249 246 239 228 227 231 235 236 238 242 247 243 237 242 238 240 239 238 230 229 233 240 234 232 238 238 240 231 230 229 233 236 241 243 251
269 270 272 274 273 270 268 266 261 255 248 242 242 240 229 219 225 231 234 232 235 240 236 237 239 237 237 239 240 236 235 235 241 241 237 237 238 235 241 241 242 237 235 234 238 244 251
267 268 271 271 270 268 263 260 255 247 239 234 236 236 226 220 227 228 231 232 234 234 233 234 234 235 235 237 237 237 240 238 241 240 240 247 242 244 248 242 238 238 237 238 241 246 244
265 268 270 270 267 262 259 255 248 242 232 227 231 229 226 223 229 225 227 230 228 230 235 235 235 236 237 235 234 239 238 240 248 242 246 247 240 236 240 241 249 247 254 240 237 242 248
265 267 269 266 261 259 254 249 244 235 226 223 225 226 224 224 223 226 224 229 227 228 225 229 234 234 233 237 239 237 239 244 245 240 243 243 246 242 242 248 254 257 254 248 246 244 243
265 266 267 262 259 253 248 245 239 231 224 224 224 225 227 230 223 223 225 224 223 223 222 223 225 226 229 234 235 240 238 236 241 242 238 238 244 248 246 248 252 258 256 252 250 251 252
264 266 263 259 252 247 246 242 235 229 222 224 224 226 229 228 225 222 222 223 221 221 224 226 225 233 239 241 238 240 241 243 240 242 240 237 241 245 247 249 259 253 253 258 252 249 246
265 263 259 253 248 247 244 239 234 229 223 223 225 224 227 230 227 225 222 222 223 223 224 225 229 233 237 249 245 242 238 239 240 240 237 238 240 244 251 254 249 250 252 265 260 254 248
263 259 254 250 248 244 240 235 231 227 223 222 223 223 226 232 232 228 227 225 224 225 227 229 231 237 237 244 246 244 242 242 241 238 236 241 243 252 253 251 258 256 249 257 259 264 261
257 252 250 247 243 239 235 232 229 225 222 221 223 224 227 231 230 227 227 225 227 227 230 233 236 237 237 235 238 239 237 237 238 236 236 241 249 249 254 255 254 256 251 258 270 256 244
250 247 244 242 239 237 235 233 230 227 223 221 223 221 225 229 231 228 229 229 228 225 232 230 230 232 231 232 234 236 241 241 239 233 236 243 250 249 254 262 262 252 256 254 257 249 256
250 248 246 244 242 240 238 234 231 229 225 222 224 223 223 228 228 227 230 230 228 227 228 227 227 228 229 229 232 235 238 240 239 239 239 240 244 251 251 259 266 251 248 245 254 262 255
257 254 250 247 245 242 238 234 232 227 224 221 225 222 222 227 232 231 232 234 234 231 227 225 229 228 226 229 233 236 241 243 240 244 243 246 242 250 248 253 263 253 255 254 263 266 253